When you browse on this site, cookies collect data to enhance your experience and personalize the content and advertising you see.
Visit our Privacy Policy to learn more. By continuing to use the site, you agree to this use of cookies and data.
  • In Netherlands
  • List of Countries
  • For 7 days
  • Water Temperature
  • Satellite Maps
  • Weather Map
  • Weather Widgets
  • user-avatar
    Login

    Hourly Weather Santa Cruz

    Today, 18 July, Thursday

    Time Temperature Precipitation Wind Pressure Humidity
    00:00 +22°C° 0 mm 1 mps 725 mmHg 71%
    01:00 +21°C° 0 mm 1 mps 725 mmHg 71%
    02:00 +21°C° 0 mm 1 mps 725 mmHg 72%
    03:00 +21°C° 0 mm 1 mps 724 mmHg 73%
    04:00 +20°C° 0 mm 2 mps 724 mmHg 73%
    05:00 +20°C° 0 mm 2 mps 724 mmHg 74%
    06:00 +21°C° 0 mm 3 mps 724 mmHg 71%
    07:00 +21°C° 0 mm 3 mps 724 mmHg 68%
    08:00 +22°C° 0 mm 4 mps 725 mmHg 64%
    09:00 +26°C° 0 mm 5 mps 725 mmHg 57%
    10:00 +28°C° 0 mm 6 mps 725 mmHg 49%
    11:00 +32°C° 0 mm 7 mps 725 mmHg 42%
    12:00 +33°C° 0 mm 7 mps 724 mmHg 40%
    13:00 +33°C° 0 mm 7 mps 723 mmHg 38%
    14:00 +34°C° 0 mm 7 mps 723 mmHg 36%
    15:00 +33°C° 0 mm 7 mps 722 mmHg 38%
    16:00 +33°C° 0 mm 6 mps 722 mmHg 40%
    17:00 +32°C° 0 mm 6 mps 721 mmHg 42%
    18:00 +30°C° 0 mm 5 mps 722 mmHg 45%
    19:00 +29°C° 0 mm 4 mps 723 mmHg 48%
    20:00 +28°C° 0 mm 3 mps 723 mmHg 51%
    21:00 +27°C° 0 mm 3 mps 724 mmHg 54%
    22:00 +26°C° 0 mm 2 mps 724 mmHg 57%
    23:00 +26°C° 0 mm 2 mps 724 mmHg 60%

    Tomorrow, 19 July, Friday

    Time Temperature Precipitation Wind Pressure Humidity
    00:00 +25°C° 0 mm 2 mps 724 mmHg 63%
    01:00 +25°C° 0 mm 2 mps 724 mmHg 65%
    02:00 +24°C° 0 mm 2 mps 724 mmHg 67%
    03:00 +24°C° 0.1 mm 1 mps 724 mmHg 69%
    04:00 +23°C° 0.1 mm 1 mps 724 mmHg 72%
    05:00 +23°C° 0.1 mm 1 mps 724 mmHg 74%
    06:00 +23°C° 1.6 mm 1 mps 725 mmHg 77%
    07:00 +23°C° 1.6 mm 1 mps 725 mmHg 81%
    08:00 +23°C° 1.6 mm 1 mps 726 mmHg 84%
    09:00 +24°C° 0.5 mm 1 mps 726 mmHg 77%
    10:00 +26°C° 0.5 mm 2 mps 726 mmHg 69%
    11:00 +28°C° 0.5 mm 2 mps 726 mmHg 62%
    12:00 +29°C° 0.2 mm 2 mps 726 mmHg 59%
    13:00 +29°C° 0.2 mm 2 mps 725 mmHg 55%
    14:00 +30°C° 0.2 mm 2 mps 724 mmHg 51%
    15:00 +30°C° 0 mm 2 mps 724 mmHg 52%
    16:00 +30°C° 0 mm 2 mps 723 mmHg 52%
    17:00 +29°C° 0 mm 2 mps 723 mmHg 52%
    18:00 +27°C° 0.3 mm 1 mps 723 mmHg 62%
    19:00 +25°C° 0.3 mm 1 mps 723 mmHg 72%
    20:00 +24°C° 0.3 mm 1 mps 723 mmHg 82%
    21:00 +23°C° 0 mm 1 mps 724 mmHg 82%
    22:00 +23°C° 0 mm 1 mps 724 mmHg 83%
    23:00 +23°C° 0 mm 1 mps 724 mmHg 83%

    Day after tomorrow, 20 July, Saturday

    Time Temperature Precipitation Wind Pressure Humidity
    00:00 +23°C° 0 mm 1 mps 723 mmHg 82%
    01:00 +23°C° 0 mm 1 mps 723 mmHg 82%
    02:00 +23°C° 0 mm 2 mps 723 mmHg 81%
    03:00 +23°C° 0 mm 2 mps 722 mmHg 80%
    04:00 +23°C° 0 mm 2 mps 722 mmHg 79%
    05:00 +23°C° 0 mm 2 mps 722 mmHg 78%
    06:00 +24°C° 0 mm 3 mps 722 mmHg 75%
    07:00 +24°C° 0 mm 3 mps 722 mmHg 71%
    08:00 +25°C° 0 mm 4 mps 723 mmHg 68%
    09:00 +27°C° 0 mm 5 mps 723 mmHg 62%
    10:00 +28°C° 0 mm 6 mps 723 mmHg 56%
    11:00 +30°C° 0 mm 7 mps 723 mmHg 50%
    12:00 +30°C° 0 mm 7 mps 722 mmHg 47%
    13:00 +32°C° 0 mm 7 mps 721 mmHg 44%
    14:00 +33°C° 0 mm 8 mps 720 mmHg 40%
    15:00 +32°C° 0 mm 7 mps 720 mmHg 43%
    16:00 +32°C° 0 mm 7 mps 719 mmHg 45%
    17:00 +30°C° 0 mm 7 mps 719 mmHg 48%
    18:00 +29°C° 0 mm 6 mps 719 mmHg 49%
    19:00 +29°C° 0 mm 6 mps 719 mmHg 51%
    20:00 +28°C° 0 mm 6 mps 720 mmHg 52%
    21:00 +28°C° 0 mm 6 mps 720 mmHg 53%
    22:00 +28°C° 0 mm 6 mps 720 mmHg 53%
    23:00 +28°C° 0 mm 6 mps 720 mmHg 54%

    21 July, Sunday

    Time Temperature Precipitation Wind Pressure Humidity
    00:00 +28°C° 0 mm 6 mps 720 mmHg 54%
    01:00 +28°C° 0 mm 6 mps 720 mmHg 54%
    02:00 +28°C° 0 mm 6 mps 720 mmHg 54%
    03:00 +28°C° 0 mm 7 mps 720 mmHg 54%
    04:00 +28°C° 0 mm 7 mps 720 mmHg 54%
    05:00 +28°C° 0 mm 7 mps 719 mmHg 54%
    06:00 +28°C° 0 mm 7 mps 720 mmHg 54%
    07:00 +28°C° 0 mm 7 mps 720 mmHg 54%
    08:00 +28°C° 0 mm 8 mps 721 mmHg 53%
    09:00 +31°C° 0 mm 8 mps 721 mmHg 49%
    10:00 +32°C° 0 mm 9 mps 721 mmHg 44%
    11:00 +34°C° 0 mm 9 mps 721 mmHg 40%
    12:00 +34°C° 0 mm 9 mps 720 mmHg 39%
    13:00 +35°C° 0 mm 9 mps 719 mmHg 38%
    14:00 +35°C° 0 mm 9 mps 718 mmHg 37%
    15:00 +34°C° 0 mm 9 mps 718 mmHg 38%
    16:00 +34°C° 0 mm 8 mps 717 mmHg 40%
    17:00 +33°C° 0 mm 8 mps 717 mmHg 42%
    18:00 +32°C° 0 mm 8 mps 717 mmHg 44%
    19:00 +32°C° 0 mm 8 mps 718 mmHg 46%
    20:00 +31°C° 0 mm 8 mps 718 mmHg 49%
    21:00 +31°C° 0 mm 8 mps 718 mmHg 49%
    22:00 +31°C° 0 mm 8 mps 718 mmHg 49%
    23:00 +29°C° 0 mm 8 mps 719 mmHg 50%

    22 July, Monday

    Time Temperature Precipitation Wind Pressure Humidity
    00:00 +29°C° 0 mm 8 mps 719 mmHg 50%
    01:00 +29°C° 0 mm 8 mps 718 mmHg 51%
    02:00 +29°C° 0 mm 8 mps 718 mmHg 52%
    03:00 +28°C° 0 mm 8 mps 718 mmHg 52%
    04:00 +28°C° 0 mm 8 mps 718 mmHg 51%
    05:00 +28°C° 0 mm 8 mps 718 mmHg 51%
    06:00 +28°C° 0 mm 8 mps 719 mmHg 52%
    07:00 +28°C° 0 mm 8 mps 719 mmHg 52%
    08:00 +28°C° 0 mm 8 mps 720 mmHg 53%
    09:00 +31°C° 0 mm 9 mps 720 mmHg 49%
    10:00 +32°C° 0 mm 9 mps 721 mmHg 45%
    11:00 +34°C° 0 mm 10 mps 721 mmHg 40%
    12:00 +34°C° 0 mm 9 mps 720 mmHg 40%
    13:00 +34°C° 0 mm 9 mps 720 mmHg 39%
    14:00 +35°C° 0 mm 9 mps 719 mmHg 38%
    15:00 +34°C° 0 mm 8 mps 719 mmHg 41%
    16:00 +33°C° 0 mm 8 mps 719 mmHg 44%
    17:00 +32°C° 0 mm 7 mps 718 mmHg 46%
    18:00 +30°C° 0 mm 6 mps 719 mmHg 49%
    19:00 +29°C° 0 mm 5 mps 720 mmHg 51%
    20:00 +29°C° 0 mm 4 mps 720 mmHg 53%
    21:00 +28°C° 0 mm 4 mps 721 mmHg 56%
    22:00 +27°C° 0 mm 3 mps 721 mmHg 59%
    23:00 +26°C° 0 mm 2 mps 722 mmHg 61%

    23 July, Tuesday

    Time Temperature Precipitation Wind Pressure Humidity
    00:00 +25°C° 0 mm 3 mps 722 mmHg 57%
    01:00 +23°C° 0 mm 4 mps 722 mmHg 53%
    02:00 +22°C° 0 mm 5 mps 722 mmHg 48%
    03:00 +21°C° 0.1 mm 5 mps 722 mmHg 52%
    04:00 +19°C° 0.1 mm 5 mps 723 mmHg 56%
    05:00 +17°C° 0.1 mm 5 mps 723 mmHg 60%
    06:00 +16°C° 0 mm 5 mps 724 mmHg 61%
    07:00 +15°C° 0 mm 6 mps 724 mmHg 62%
    08:00 +14°C° 0 mm 6 mps 725 mmHg 63%
    09:00 +14°C° 0 mm 6 mps 725 mmHg 61%
    10:00 +15°C° 0 mm 6 mps 726 mmHg 58%
    11:00 +15°C° 0 mm 6 mps 726 mmHg 55%
    12:00 +16°C° 0 mm 6 mps 726 mmHg 52%
    13:00 +16°C° 0 mm 6 mps 726 mmHg 48%
    14:00 +17°C° 0 mm 6 mps 725 mmHg 45%
    15:00 +16°C° 0 mm 6 mps 725 mmHg 46%
    16:00 +15°C° 0 mm 6 mps 725 mmHg 48%
    17:00 +14°C° 0 mm 6 mps 725 mmHg 50%
    18:00 +13°C° 0 mm 6 mps 725 mmHg 52%
    19:00 +13°C° 0 mm 6 mps 725 mmHg 55%
    20:00 +11°C° 0 mm 6 mps 726 mmHg 58%
    21:00 +10°C° 0 mm 6 mps 726 mmHg 61%
    22:00 +10°C° 0 mm 7 mps 726 mmHg 63%
    23:00 +9°C° 0 mm 7 mps 727 mmHg 66%
    Show more